Regional Weather Roundup
Issued by NWS Green Bay, WI

Home | Current Version | Previous Version | Text Only | Print | Product List | Glossary On
Versions: 1 2 3 4 5 6 7 8 9 10 11 12 13 14 15 16 17 18 19 20 21 22 23 24 25 26 27 28 29 30 31 32 33 34 35 36 37 38 39 40 41 42 43 44 45 46 47 48 49 50
000
ASUS43 KGRB 270459
RWRGRB

NORTH-CENTRAL AND NORTHEAST WISCONSIN REGIONAL WEATHER ROUNDUP
NATIONAL WEATHER SERVICE GREEN BAY WI
1200 AM CDT FRI MAR 27 2015

WIZ005-009-010>012-018-019-270600-
NORTH CENTRAL WISCONSIN

CITY           SKY/WX    TMP DP  RH WIND       PRES   REMARKS
IRONWOOD       CLOUDY    21   3  45 N7        30.14R
MANITOWISH WTR NOT AVBL
ARBOR VITAE    NOT AVBL
EAGLE RIVER    NOT AVBL
LAND O LAKES   NOT AVBL
RHINELANDER    CLOUDY     7   3  84 NW5       30.11S WCI  -2
PHILLIPS       MOCLDY    13   6  72 NW3       30.13S
ANTIGO         NOT AVBL
TOMAHAWK       NOT AVBL
MERRILL        NOT AVBL
$$

WIZ013-073-270600-
NORTHEAST WISCONSIN

CITY           SKY/WX    TMP DP  RH WIND       PRES   REMARKS
IRON MOUNTAIN  PTCLDY     9   2  73 NW6       30.11R WCI  -1
MARINETTE      CLEAR     18   3  53 NW7       30.14S WCI   8
$$

WIZ017-030-035>037-045-270600-
CENTRAL WISCONSIN

CITY           SKY/WX    TMP DP  RH WIND       PRES   REMARKS
MEDFORD        NOT AVBL
WAUSAU         CLEAR     17   6  62 N3        30.13S
MOSINEE        CLEAR     18   7  62 NE6       30.15S WCI   9
MARSHFIELD     CLEAR     19   6  57 NE9       30.15R WCI   8
WISC RAPIDS    CLEAR     20   5  52 N12       30.17R WCI   8
STEVENS POINT  NOT AVBL
WAUPACA        PTCLDY    24   8  51 N9        30.15R
SHAWANO        CLEAR     20   5  51 NW3       30.16S
CLINTONVILLE   PTCLDY    21   5  49 N8G16     30.16R
$$

WIZ038-039-048-051-270600-
FOX VALLEY

CITY           SKY/WX    TMP DP  RH WIND       PRES   REMARKS
NWS GREEN BAY  PTCLDY    22   6  50 N18G28    30.16R WCI   7
APPLETON       NOT AVBL
OSHKOSH        CLOUDY    26  12  55 N17       30.12R
FOND DU LAC    CLOUDY    27  12  53 N13       30.12R
$$

WIZ022-050-052-270600-
EAST CENTRAL WISCONSIN

CITY           SKY/WX    TMP DP  RH WIND       PRES   REMARKS
STURGEON BAY   PTCLDY    19   3  49 N15       30.15S WCI   5
MANITOWOC      NOT AVBL
SHEBOYGAN      CLOUDY    25  16  68 N10       30.11R
$$

LMZ563-521-522-541>543-270600-
LAKESHORE

STATION/POSITION TIME  TEMP    WIND        PRES    VSBY  WAVE
                       AIR SEA DIR/SP/G                  HT/PER
                 (UTC) (F)     (DEG/KT/KT) (MB)    (MI)  (FT/S)
SHEBOYGAN LKSHOR 0400   27     340/ 19/ 21 1020.2R
KEWAUNEE LKSHORE 0400   23     360/ 10/ 18 1019.2R
NORTHPORT PIER   0400   21     340/ 17/ 25 1020.0S
SISTER BAY LKSHO 0400   20      20/ 23/ 29   N/A
CHAMBERS ISLAND  0400   20     310/ 13/ 18 1020.7S
MENOMINEE LKSHOR 0400   20     320/ 12     1021.3S
$$



USA.gov is the U.S. government's official web portal to all federal, state and local government web resources and services.